Location: Ferques
(50.8300°N, 1.7599°E)
Time: 20:52:57
(UTC+00:00)

PSLV R/B - Pass Details

Date: 19 May 2025
Orbit: 400 x 431 km, 97.7° (Epoch: 21 June)

Event Time Altitude Azimuth Distance (km) Brightness Sun altitude
Exits shadow 20:52:09 13° 146° (SSE) 1,317 5.1 -9.2°
Maximum altitude 20:54:49 51° 72° (ENE) 541 3.6 -9.5°
Drops below altitude 10° 20:58:00 10° 355° (N) 1,531 7.0 -9.8°
Sets 21:00:04 0° 351° (N) 2,410 8.2 -10.0°
